SCP
0 0 0 0 0 0 0 0 0 0 0 0 0 0 0 0 0 0 0 0 0 0
0 0 0 0 0 0 0 0 0 0 0 0 0 0 0 0 0 0 0 0 0 0
0 0 0 0 0 0 0 0 0 0 0 0 0 0 0 0 0 0 0 0 0 0
0 0 0 0 0 0 0 0 0 0 0 0 0 0 0 0 0 0 0 0 0 0
0 0 0 0 0 0 0 0 0 0 0 0 0 0 0 0 0 0 0 0 0 0
0 0 0 0 0 0 0 0 0 0 0 0 0 0 0 0 0 0 0 0 0 0
0 0 0 0 0 0 0 0 0 0 0 0 0 0 0 0 0 0 0 0 0 0
0 0 0 0 0 0 0 0 0 0 0 0 0 0 0 0 0 0 0 0 0 0
0 0 0 0 0 0 0 0 0 0 0 0 0 0 0 0 0 0 0 0 0 0
0 0 0 0 0 0 0 0 0 0 0 0 0 0 0 0 0 0 0 0 0 0
0 0 0 0 0 0 0 0 0 0 0 0 0 0 0 0 0 0 0 0 0 0
0 0 0 0 0 0 0 0 0 0 0 0 0 0 0 0 0 0 0 0 0 0
0 0 0 0 0 0 0 0 0 0 0 0 0 0 0 0 0 0 0 0 0 0
0 0 0 0 0 0 0 0 0 0 0 0 0 0 0 0 0 0 0 0 0 0
Wind_Speed_500mb
78 78 79 75 72 70 71 70 63 55 57 58 58 58 54 50 45 41 40 43 44 41
82 82 82 78 70 68 68 69 65 61 56 60 64 65 60 57 49 43 44 43 43 39
78 80 78 74 64 60 61 58 55 56 59 61 65 63 64 61 51 40 38 40 40 41
79 78 76 66 64 66 63 64 61 59 59 56 62 63 64 59 50 41 41 43 42 40
73 75 77 71 70 67 67 66 62 63 64 63 61 58 63 59 48 40 47 44 42 39
48 53 55 58 60 59 61 61 63 63 58 56 55 56 61 53 47 39 42 42 40 38
36 39 43 46 47 51 53 54 58 57 55 50 51 57 56 52 46 39 41 42 44 39
33 37 39 41 45 48 50 52 53 51 45 43 49 53 52 45 42 41 41 39 38 34
34 33 35 36 37 40 42 42 37 34 40 39 43 36 34 36 38 40 41 36 35 34
26 26 26 26 27 26 27 25 33 33 40 40 36 33 36 35 37 35 35 36 32 30
20 21 21 20 19 24 25 28 33 39 36 42 39 35 33 38 37 36 33 31 29 29
21 22 21 21 23 24 26 34 34 34 44 38 33 30 35 38 37 35 35 35 34 29
24 23 22 21 23 27 30 34 36 38 37 33 31 31 37 38 38 37 39 37 32 37
23 22 22 23 23 28 32 34 35 36 39 39 37 38 39 43 43 42 39 37 39 36
Wind_Direction_500mb
245 247 252 252 253 252 254 257 257 252 243 242 241 241 243 248 253 263 263 257 255 257
246 247 250 253 251 248 252 254 255 253 247 241 241 244 245 245 247 255 258 254 255 254
249 249 250 249 244 240 240 244 247 249 250 242 241 243 246 244 245 250 247 250 250 250
243 241 239 235 232 233 234 235 236 240 241 245 242 241 239 244 239 246 245 248 249 256
242 243 244 240 242 240 236 237 240 238 244 249 246 241 241 230 236 242 246 246 251 261
246 247 246 245 246 241 242 241 241 245 245 246 241 240 233 231 232 239 248 240 260 259
241 242 241 242 243 243 243 243 244 243 245 233 236 231 228 231 234 238 240 248 245 218
252 250 250 249 248 246 245 246 244 242 235 223 225 229 223 227 231 242 241 231 225 231
253 253 253 256 256 250 245 241 231 227 216 217 217 214 232 243 240 231 218 229 229 225
255 253 248 241 240 237 234 226 213 212 222 209 218 229 241 237 228 231 232 224 218 224
252 252 251 244 230 223 218 216 223 212 222 218 228 240 240 230 230 227 220 220 222 225
252 253 247 232 223 229 228 224 216 230 225 225 233 253 241 234 225 219 220 219 223 233
246 246 247 237 227 228 232 239 241 234 234 236 247 248 237 227 226 225 227 226 237 245
247 248 245 236 230 230 232 234 238 237 239 239 236 230 229 228 229 229 228 238 247 246
Wind_Speed_850mb
78 78 79 75 72 70 71 70 63 55 57 58 58 58 54 50 45 41 40 43 44 41
82 82 82 78 70 68 68 69 65 61 56 60 64 65 60 57 49 43 44 43 43 39
78 80 78 74 64 60 61 58 55 56 59 61 65 63 64 61 51 40 38 40 40 41
79 78 76 66 64 66 63 64 61 59 59 56 62 63 64 59 50 41 41 43 42 40
73 75 77 71 70 67 67 66 62 63 64 63 61 58 63 59 48 40 47 44 42 39
48 53 55 58 60 59 61 61 63 63 58 56 55 56 61 53 47 39 42 42 40 38
36 39 43 46 47 51 53 54 58 57 55 50 51 57 56 52 46 39 41 42 44 39
33 37 39 41 45 48 50 52 53 51 45 43 49 53 52 45 42 41 41 39 38 34
34 33 35 36 37 40 42 42 37 34 40 39 43 36 34 36 38 40 41 36 35 34
26 26 26 26 27 26 27 25 33 33 40 40 36 33 36 35 37 35 35 36 32 30
20 21 21 20 19 24 25 28 33 39 36 42 39 35 33 38 37 36 33 31 29 29
21 22 21 21 23 24 26 34 34 34 44 38 33 30 35 38 37 35 35 35 34 29
24 23 22 21 23 27 30 34 36 38 37 33 31 31 37 38 38 37 39 37 32 37
23 22 22 23 23 28 32 34 35 36 39 39 37 38 39 43 43 42 39 37 39 36
Wind_Direction_850mb
245 247 252 252 253 252 254 257 257 252 243 242 241 241 243 248 253 263 263 257 255 257
246 247 250 253 251 248 252 254 255 253 247 241 241 244 245 245 247 255 258 254 255 254
249 249 250 249 244 240 240 244 247 249 250 242 241 243 246 244 245 250 247 250 250 250
243 241 239 235 232 233 234 235 236 240 241 245 242 241 239 244 239 246 245 248 249 256
242 243 244 240 242 240 236 237 240 238 244 249 246 241 241 230 236 242 246 246 251 261
246 247 246 245 246 241 242 241 241 245 245 246 241 240 233 231 232 239 248 240 260 259
241 242 241 242 243 243 243 243 244 243 245 233 236 231 228 231 234 238 240 248 245 218
252 250 250 249 248 246 245 246 244 242 235 223 225 229 223 227 231 242 241 231 225 231
253 253 253 256 256 250 245 241 231 227 216 217 217 214 232 243 240 231 218 229 229 225
255 253 248 241 240 237 234 226 213 212 222 209 218 229 241 237 228 231 232 224 218 224
252 252 251 244 230 223 218 216 223 212 222 218 228 240 240 230 230 227 220 220 222 225
252 253 247 232 223 229 228 224 216 230 225 225 233 253 241 234 225 219 220 219 223 233
246 246 247 237 227 228 232 239 241 234 234 236 247 248 237 227 226 225 227 226 237 245
247 248 245 236 230 230 232 234 238 237 239 239 236 230 229 228 229 229 228 238 247 246